Hourly Weather Rudnyts'ke

Today, 11 April, Sunday

Time Temperature Precipitation Wind Pressure Humidity
00:00 +5°C° 0 mm 2 mps 747 mmHg 55%
01:00 +4°C° 0 mm 2 mps 747 mmHg 57%
02:00 +4°C° 0 mm 2 mps 747 mmHg 59%
03:00 +4°C° 0 mm 2 mps 747 mmHg 61%
04:00 +3°C° 0 mm 2 mps 747 mmHg 62%
05:00 +4°C° 0 mm 1 mps 748 mmHg 64%
06:00 +5°C° 0 mm 1 mps 748 mmHg 60%
07:00 +6°C° 0 mm 2 mps 748 mmHg 56%
08:00 +7°C° 0 mm 2 mps 749 mmHg 52%
09:00 +9°C° 0 mm 2 mps 749 mmHg 47%
10:00 +10°C° 0 mm 2 mps 749 mmHg 41%
11:00 +11°C° 0 mm 3 mps 749 mmHg 36%
12:00 +13°C° 0 mm 2 mps 749 mmHg 35%
13:00 +13°C° 0 mm 2 mps 748 mmHg 33%
14:00 +14°C° 0 mm 2 mps 748 mmHg 32%
15:00 +14°C° 0 mm 2 mps 748 mmHg 33%
16:00 +14°C° 0 mm 2 mps 748 mmHg 34%
17:00 +14°C° 0 mm 2 mps 748 mmHg 35%
18:00 +12°C° 0 mm 2 mps 748 mmHg 39%
19:00 +10°C° 0 mm 2 mps 748 mmHg 43%
20:00 +10°C° 0 mm 1 mps 748 mmHg 48%
21:00 +9°C° 0 mm 1 mps 748 mmHg 49%
22:00 +9°C° 0 mm 1 mps 747 mmHg 50%
23:00 +8°C° 0 mm 1 mps 747 mmHg 51%

Tomorrow, 12 April, Monday

Time Temperature Precipitation Wind Pressure Humidity
00:00 +8°C° 0 mm 1 mps 747 mmHg 54%
01:00 +7°C° 0 mm 1 mps 747 mmHg 57%
02:00 +7°C° 0 mm 1 mps 747 mmHg 59%
03:00 +7°C° 0 mm 1 mps 747 mmHg 60%
04:00 +6°C° 0 mm 1 mps 746 mmHg 61%
05:00 +5°C° 0 mm 2 mps 746 mmHg 62%
06:00 +6°C° 0 mm 2 mps 746 mmHg 59%
07:00 +8°C° 0 mm 2 mps 746 mmHg 56%
08:00 +9°C° 0 mm 2 mps 746 mmHg 53%
09:00 +10°C° 0 mm 2 mps 746 mmHg 49%
10:00 +13°C° 0 mm 2 mps 745 mmHg 45%
11:00 +14°C° 0 mm 2 mps 745 mmHg 41%
12:00 +15°C° 0 mm 2 mps 745 mmHg 39%
13:00 +16°C° 0 mm 2 mps 744 mmHg 38%
14:00 +17°C° 0 mm 2 mps 744 mmHg 37%
15:00 +17°C° 0 mm 2 mps 744 mmHg 38%
16:00 +16°C° 0 mm 2 mps 743 mmHg 39%
17:00 +16°C° 0 mm 2 mps 743 mmHg 39%
18:00 +15°C° 0 mm 2 mps 743 mmHg 46%
19:00 +13°C° 0 mm 2 mps 744 mmHg 53%
20:00 +12°C° 0 mm 2 mps 744 mmHg 60%
21:00 +10°C° 0 mm 2 mps 744 mmHg 67%
22:00 +9°C° 0 mm 2 mps 743 mmHg 74%
23:00 +9°C° 0 mm 2 mps 743 mmHg 81%

Day after tomorrow, 13 April, Tuesday

Time Temperature Precipitation Wind Pressure Humidity
00:00 +10°C° 0 mm 1 mps 743 mmHg 82%
01:00 +9°C° 0 mm 1 mps 743 mmHg 83%
02:00 +8°C° 0 mm 0 mps 743 mmHg 84%
03:00 +8°C° 0 mm 0 mps 743 mmHg 84%
04:00 +8°C° 0 mm 0 mps 743 mmHg 85%
05:00 +9°C° 0 mm 1 mps 743 mmHg 85%
06:00 +10°C° 0 mm 1 mps 743 mmHg 83%
07:00 +10°C° 0 mm 1 mps 743 mmHg 81%
08:00 +11°C° 0 mm 1 mps 743 mmHg 79%
09:00 +12°C° 0 mm 1 mps 743 mmHg 76%
10:00 +13°C° 0 mm 1 mps 742 mmHg 73%
11:00 +13°C° 0 mm 1 mps 742 mmHg 70%
12:00 +14°C° 0 mm 2 mps 742 mmHg 69%
13:00 +14°C° 0 mm 2 mps 742 mmHg 68%
14:00 +14°C° 0 mm 2 mps 742 mmHg 67%
15:00 +13°C° 0 mm 3 mps 742 mmHg 70%
16:00 +12°C° 0 mm 3 mps 741 mmHg 73%
17:00 +12°C° 0 mm 3 mps 741 mmHg 76%
18:00 +11°C° 0 mm 3 mps 741 mmHg 78%
19:00 +11°C° 0 mm 3 mps 741 mmHg 80%
20:00 +10°C° 0 mm 3 mps 741 mmHg 82%
21:00 +10°C° 0 mm 3 mps 741 mmHg 82%
22:00 +10°C° 0 mm 3 mps 741 mmHg 82%
23:00 +10°C° 0 mm 3 mps 740 mmHg 81%

14 April, Wednesday

Time Temperature Precipitation Wind Pressure Humidity
00:00 +9°C° 0 mm 3 mps 740 mmHg 82%
01:00 +9°C° 0 mm 3 mps 740 mmHg 82%
02:00 +8°C° 0 mm 3 mps 739 mmHg 83%
03:00 +8°C° 0 mm 3 mps 739 mmHg 83%
04:00 +8°C° 0 mm 3 mps 739 mmHg 84%
05:00 +7°C° 0 mm 3 mps 739 mmHg 84%
06:00 +7°C° 0.1 mm 3 mps 739 mmHg 84%
07:00 +8°C° 0.1 mm 3 mps 739 mmHg 83%
08:00 +8°C° 0.1 mm 3 mps 739 mmHg 83%
09:00 +7°C° 0.1 mm 4 mps 739 mmHg 82%
10:00 +7°C° 0.1 mm 4 mps 739 mmHg 82%
11:00 +8°C° 0.1 mm 4 mps 739 mmHg 82%
12:00 +8°C° 0 mm 4 mps 739 mmHg 77%
13:00 +10°C° 0 mm 4 mps 739 mmHg 73%
14:00 +11°C° 0 mm 4 mps 738 mmHg 68%
15:00 +11°C° 0 mm 4 mps 738 mmHg 67%
16:00 +11°C° 0 mm 4 mps 738 mmHg 66%
17:00 +11°C° 0 mm 4 mps 738 mmHg 66%
18:00 +11°C° 0 mm 4 mps 738 mmHg 69%
19:00 +10°C° 0 mm 4 mps 738 mmHg 72%
20:00 +8°C° 0 mm 4 mps 738 mmHg 75%
21:00 +7°C° 0.1 mm 4 mps 738 mmHg 78%
22:00 +8°C° 0.1 mm 3 mps 738 mmHg 82%
23:00 +7°C° 0.1 mm 3 mps 738 mmHg 85%

15 April, Thursday

Time Temperature Precipitation Wind Pressure Humidity
00:00 +7°C° 0.2 mm 3 mps 738 mmHg 85%
01:00 +7°C° 0.2 mm 3 mps 737 mmHg 85%
02:00 +7°C° 0.2 mm 3 mps 737 mmHg 85%
03:00 +7°C° 0.5 mm 3 mps 737 mmHg 87%
04:00 +7°C° 0.5 mm 3 mps 737 mmHg 89%
05:00 +6°C° 0.5 mm 4 mps 737 mmHg 91%
06:00 +6°C° 0.4 mm 4 mps 737 mmHg 90%
07:00 +7°C° 0.4 mm 3 mps 737 mmHg 88%
08:00 +7°C° 0.4 mm 3 mps 737 mmHg 87%
09:00 +8°C° 0.1 mm 3 mps 737 mmHg 85%
10:00 +9°C° 0.1 mm 3 mps 737 mmHg 83%
11:00 +9°C° 0.1 mm 2 mps 737 mmHg 81%
12:00 +10°C° 0.1 mm 2 mps 737 mmHg 77%
13:00 +12°C° 0.1 mm 2 mps 736 mmHg 74%
14:00 +12°C° 0.1 mm 2 mps 736 mmHg 70%
15:00 +12°C° 0.2 mm 2 mps 736 mmHg 74%
16:00 +10°C° 0.2 mm 2 mps 736 mmHg 78%
17:00 +10°C° 0.2 mm 2 mps 736 mmHg 82%
18:00 +10°C° 0.2 mm 2 mps 736 mmHg 85%
19:00 +9°C° 0.2 mm 3 mps 736 mmHg 87%
20:00 +9°C° 0.2 mm 3 mps 736 mmHg 90%
21:00 +7°C° 0.1 mm 4 mps 736 mmHg 91%
22:00 +7°C° 0.1 mm 4 mps 735 mmHg 92%
23:00 +7°C° 0.1 mm 4 mps 735 mmHg 93%

16 April, Friday

Time Temperature Precipitation Wind Pressure Humidity
00:00 +8°C° 0 mm 3 mps 735 mmHg 94%
01:00 +8°C° 0 mm 3 mps 735 mmHg 95%
02:00 +8°C° 0 mm 3 mps 735 mmHg 96%
03:00 +8°C° 0.1 mm 3 mps 735 mmHg 96%
04:00 +8°C° 0.1 mm 2 mps 735 mmHg 96%
05:00 +8°C° 0.1 mm 2 mps 735 mmHg 96%
06:00 +8°C° 0.5 mm 3 mps 735 mmHg 95%
07:00 +7°C° 0.5 mm 4 mps 735 mmHg 93%
08:00 +8°C° 0.5 mm 5 mps 735 mmHg 92%
09:00 +8°C° 0.3 mm 5 mps 736 mmHg 91%
10:00 +8°C° 0.3 mm 6 mps 736 mmHg 90%
11:00 +8°C° 0.3 mm 7 mps 736 mmHg 89%
12:00 +8°C° 0.5 mm 7 mps 737 mmHg 88%
13:00 +8°C° 0.5 mm 7 mps 737 mmHg 88%
14:00 +6°C° 0.5 mm 7 mps 737 mmHg 88%
15:00 +6°C° 0.2 mm 7 mps 738 mmHg 89%
16:00 +5°C° 0.2 mm 7 mps 738 mmHg 89%
17:00 +5°C° 0.2 mm 7 mps 739 mmHg 90%
18:00 +5°C° 0.3 mm 7 mps 739 mmHg 90%
19:00 +5°C° 0.3 mm 8 mps 740 mmHg 90%
20:00 +5°C° 0.3 mm 8 mps 740 mmHg 90%
21:00 +5°C° 0 mm 7 mps 741 mmHg 90%
22:00 +4°C° 0 mm 7 mps 742 mmHg 90%
23:00 +4°C° 0 mm 7 mps 742 mmHg 90%
Show more